TimeEDT,TemperatureF,Dew PointF,Humidity,Sea Level PressureIn,VisibilityMPH,Wind Direction,Wind SpeedMPH,Gust SpeedMPH,PrecipitationIn,Events,Conditions,WindDirDegrees,DateUTC
12:55 AM,35.1,28.9,78,30.18,10.0,NNW,4.6,-,N/A,,Clear,340,2012-10-12 04:55:00
1:55 AM,34.0,28.0,79,30.22,10.0,NNW,4.6,-,N/A,,Clear,330,2012-10-12 05:55:00
2:55 AM,34.0,27.0,75,30.25,10.0,North,3.5,-,N/A,,Scattered Clouds,350,2012-10-12 06:55:00
3:55 AM,34.0,25.0,70,30.26,10.0,North,5.8,-,N/A,,Clear,360,2012-10-12 07:55:00
4:55 AM,30.9,25.0,79,30.29,10.0,Calm,Calm,-,N/A,,Clear,0,2012-10-12 08:55:00
5:55 AM,28.0,24.1,85,30.32,10.0,Calm,Calm,-,N/A,,Clear,0,2012-10-12 09:55:00
6:55 AM,28.9,24.1,82,30.34,10.0,SSW,4.6,-,N/A,,Scattered Clouds,210,2012-10-12 10:55:00
7:55 AM,30.9,28.9,92,30.37,8.0,SW,5.8,-,0.00,Snow,Light Snow,220,2012-10-12 11:55:00
8:03 AM,30.9,28.9,92,30.36,2.0,SW,4.6,-,0.00,Snow,Light Snow,220,2012-10-12 12:03:00
8:06 AM,30.9,28.9,92,30.36,0.8,WSW,3.5,-,0.00,Snow,Light Snow,240,2012-10-12 12:06:00
8:21 AM,32.0,30.0,92,30.36,0.2,South,3.5,-,0.04,Fog-Snow,Heavy Snow,190,2012-10-12 12:21:00
8:29 AM,30.9,28.9,92,30.36,0.8,South,5.8,-,0.04,Snow,Light Snow,190,2012-10-12 12:29:00
8:33 AM,30.9,28.9,92,30.36,2.0,SSW,5.8,-,0.04,Snow,Light Snow,200,2012-10-12 12:33:00
8:38 AM,30.9,28.9,92,30.36,6.0,SSW,5.8,-,0.04,Snow,Light Snow,200,2012-10-12 12:38:00
8:55 AM,30.0,28.9,96,30.39,10.0,South,4.6,-,0.04,,Partly Cloudy,170,2012-10-12 12:55:00
9:34 AM,33.1,30.0,89,30.39,1.8,Calm,Calm,-,0.00,Snow,Light Snow,0,2012-10-12 13:34:00
9:42 AM,33.1,30.0,89,30.39,2.5,SE,3.5,-,0.01,Snow,Light Snow,130,2012-10-12 13:42:00
9:55 AM,35.1,30.9,85,30.41,9.0,Calm,Calm,-,0.01,,Mostly Cloudy,0,2012-10-12 13:55:00
10:41 AM,35.1,30.9,85,30.39,3.0,ESE,3.5,-,0.00,Snow,Light Snow,120,2012-10-12 14:41:00
10:51 AM,35.6,30.2,81,30.40,1.8,Calm,Calm,-,0.00,Snow,Light Snow,0,2012-10-12 14:51:00
10:55 AM,34.0,30.9,89,30.42,1.8,Calm,Calm,-,0.00,Snow,Light Snow,0,2012-10-12 14:55:00
11:03 AM,34.0,32.0,92,30.40,2.0,Calm,Calm,-,0.00,Snow,Light Snow,0,2012-10-12 15:03:00
11:11 AM,35.1,32.0,89,30.40,6.0,SSE,4.6,-,0.00,Snow,Light Snow,160,2012-10-12 15:11:00
11:55 AM,39.0,33.1,79,30.41,10.0,SE,6.9,-,0.00,,Overcast,140,2012-10-12 15:55:00
12:32 PM,39.9,33.1,77,30.39,10.0,East,3.5,-,0.00,Rain,Light Rain,80,2012-10-12 16:32:00
12:55 PM,37.0,33.1,86,30.42,2.5,North,8.1,-,0.02,Rain,Light Rain,10,2012-10-12 16:55:00
1:05 PM,36.0,33.1,89,30.40,1.2,Calm,Calm,-,0.03,Rain,Rain,0,2012-10-12 17:05:00
1:12 PM,36.0,33.1,89,30.39,3.0,East,4.6,-,0.05,Rain,Light Rain,90,2012-10-12 17:12:00
1:26 PM,37.0,33.1,86,30.39,5.0,NNW,5.8,-,0.05,Rain,Rain,340,2012-10-12 17:26:00
1:44 PM,39.0,34.0,82,30.38,10.0,NNW,3.5,-,0.06,,Overcast,330,2012-10-12 17:44:00
1:55 PM,39.9,34.0,79,30.40,10.0,Calm,Calm,-,0.06,,Mostly Cloudy,0,2012-10-12 17:55:00
2:37 PM,39.0,33.1,79,30.37,4.0,NNW,6.9,-,0.00,Rain,Light Rain,330,2012-10-12 18:37:00
2:55 PM,39.9,35.1,83,30.39,10.0,North,3.5,-,0.00,,Mostly Cloudy,350,2012-10-12 18:55:00
3:55 PM,42.1,34.0,73,30.37,10.0,North,3.5,-,0.00,,Overcast,360,2012-10-12 19:55:00
4:55 PM,41.0,34.0,76,30.37,10.0,West,4.6,-,N/A,,Overcast,280,2012-10-12 20:55:00
5:55 PM,42.1,33.1,70,30.37,10.0,West,4.6,-,N/A,,Overcast,270,2012-10-12 21:55:00
6:55 PM,41.0,34.0,76,30.37,10.0,Calm,Calm,-,N/A,,Overcast,0,2012-10-12 22:55:00
7:55 PM,39.0,33.1,79,30.36,10.0,South,3.5,-,N/A,,Clear,170,2012-10-12 23:55:00
8:55 PM,37.0,32.0,82,30.35,10.0,South,3.5,-,N/A,,Clear,180,2012-10-13 00:55:00
9:55 PM,37.0,32.0,82,30.34,10.0,South,4.6,-,N/A,,Clear,190,2012-10-13 01:55:00
10:55 PM,37.0,28.0,70,30.33,10.0,SSW,5.8,-,N/A,,Clear,200,2012-10-13 02:55:00
11:55 PM,36.0,28.0,73,30.32,10.0,South,5.8,-,N/A,,Clear,190,2012-10-13 03:55:00